Overview Statistics Trail Chart Weather Telemetry Raw packets
 

This is the latest recevied weather packets stored in our database for station/object N4BBA. If no packets are shown the sender has not sent any weather packets the latest 10 day(s).

<< 13 14 15 16 17 18 19 >>
Time Temp. Humidity Pressure Rain* Wind** Luminosity Snow
1777671342 12.78° C 83% 1013.1 hPa 0 mm - 73 W/m² -
1777671037 12.78° C 82% 1013 hPa 0 mm - 59 W/m² -
1777670734 12.22° C 82% 1013 hPa 0 mm - 56 W/m² -
1777670431 12.78° C 82% 1013.2 hPa 0 mm - 60 W/m² -
1777670128 12.78° C 82% 1013.1 hPa 0 mm - 57 W/m² -
1777669826 12.78° C 82% 1013.1 hPa 0 mm - 69 W/m² -
1777669522 12.78° C 82% 1013.1 hPa 0 mm - 53 W/m² -
1777669219 12.78° C 82% 1013.2 hPa 0 mm - 72 W/m² -
1777668915 12.78° C 82% 1013.1 hPa 0 mm - 107 W/m² -
1777668613 12.78° C 82% 1013 hPa 0 mm - 156 W/m² -
1777668309 12.78° C 82% 1013 hPa 0 mm - 229 W/m² -
1777668005 12.78° C 82% 1013 hPa 0 mm - 250 W/m² -
1777667702 12.22° C 82% 1012.8 hPa 0 mm - 123 W/m² -
1777667400 12.22° C 81% 1013.1 hPa 0 mm - 87 W/m² -
1777667096 12.22° C 80% 1013.1 hPa 0 mm - 64 W/m² -
1777666792 12.22° C 79% 1013.5 hPa 0 mm - 57 W/m² -
1777666490 12.78° C 80% 1013.3 hPa 0 mm - 102 W/m² -
1777666187 12.22° C 79% 1013.2 hPa 0 mm - 113 W/m² -
1777665884 12.22° C 79% 1013.4 hPa 0 mm - 180 W/m² -
1777665581 12.78° C 79% 1013.5 hPa 0 mm - 145 W/m² -
1777665278 12.78° C 79% 1013.6 hPa 0 mm - 165 W/m² -
1777664973 12.78° C 78% 1013.7 hPa 0 mm - 168 W/m² -
1777664669 12.78° C 78% 1013.7 hPa 0 mm - 108 W/m² -
1777664365 12.78° C 77% 1014.1 hPa 0 mm - 88 W/m² -
1777664064 12.78° C 77% 1014.1 hPa 0 mm - 88 W/m² -

* Rain latest hour (hover to see other rain measurements)
** Current wind speed in m/s (hover to see current wind gust speed)